This is the latest recevied weather packets stored in our database for station/object WR9A-13. If no packets are shown the sender has not sent any weather packets the latest 10 day(s).
| Time | Temp. | Humidity | Pressure | Rain* | Wind** | Luminosity | Snow |
|---|---|---|---|---|---|---|---|
| 1787609728 | 26.11° C | 52% | 1018.6 hPa | 0 mm | - | - | - |
| 1787609415 | 26.11° C | 50% | 1018.6 hPa | 0 mm | - | - | - |
| 1787609132 | 26.11° C | 49% | 1018.6 hPa | 0 mm | - | - | - |
| 1787608822 | 26.11° C | 52% | 1018.6 hPa | 0 mm | - | - | - |
| 1787608528 | 26.11° C | 52% | 1018.6 hPa | 0 mm | - | - | - |
| 1787608226 | 26.11° C | 53% | 1018.6 hPa | 0 mm | - | - | - |
| 1787607915 | 26.67° C | 52% | 1018.6 hPa | 0 mm | - | - | - |
| 1787607633 | 26.11° C | 52% | 1018.7 hPa | 0 mm | - | - | - |
| 1787607321 | 26.67° C | 50% | 1018.8 hPa | 0 mm | - | - | - |
| 1787607018 | 26.11° C | 50% | 1018.8 hPa | 0 mm | - | - | - |
| 1787606727 | 26.11° C | 52% | 1018.9 hPa | 0 mm | - | - | - |
| 1787606425 | 26.11° C | 52% | 1018.9 hPa | 0 mm | - | - | - |
| 1787606132 | 26.11° C | 52% | 1018.9 hPa | 0 mm | - | - | - |
| 1787605830 | 26.11° C | 52% | 1018.8 hPa | 0 mm | - | - | - |
| 1787605519 | 26.11° C | 51% | 1018.9 hPa | 0 mm | - | - | - |
| 1787605230 | 26.67° C | 52% | 1019 hPa | 0 mm | - | - | - |
| 1787604928 | 26.11° C | 51% | 1018.9 hPa | 0 mm | - | - | - |
| 1787604616 | 26.11° C | 52% | 1019 hPa | 0 mm | - | - | - |
| 1787604333 | 26.67° C | 51% | 1019 hPa | 0 mm | - | - | - |
| 1787604020 | 26.67° C | 51% | 1018.8 hPa | 0 mm | - | - | - |
| 1787603737 | 26.67° C | 50% | 1019 hPa | 0 mm | - | - | - |
| 1787603426 | 26.67° C | 49% | 1018.9 hPa | 0 mm | - | - | - |
| 1787603139 | 26.67° C | 50% | 1019 hPa | 0 mm | - | - | - |
| 1787602828 | 26.67° C | 51% | 1018.9 hPa | 0 mm | - | - | - |
| 1787602525 | 26.67° C | 48% | 1018.9 hPa | 0 mm | - | - | - |
* Rain latest hour (hover to see other rain measurements)
** Current wind speed in m/s (hover to see current wind gust speed)